Regional Weather Roundup
Issued by NWS Sterling, VA

Home | Current Version | Previous Version | Text Only | Print | Product List | Glossary On
Versions: 1 2 3 4 5 6 7 8 9 10 11 12 13 14 15 16 17 18 19 20 21 22 23 24 25 26 27 28 29 30 31 32 33 34 35 36 37 38 39 40 41 42 43 44 45 46 47 48 49 50
000
ASUS41 KLWX 290110
RWRLWX

REGIONAL WEATHER ROUNDUP
NATIONAL WEATHER SERVICE BALTIMORE MD/WASHINGTON DC
900 PM EDT SAT MAY 28 2016

Note: "FAIR" indicates few or no clouds below 12,000 feet
with no significant weather and/or obstructions to visibility.
 TC=TEMPERATURE CELSIUS

 * =Non NWS site. Station does not report precipitation (e.g. rain,
    snow, etc.), thunder, or fog.

DCZ001-MDZ009-015-VAZ040>042-051-053>054-290200-
WASHINGTON METRO

CITY           SKY/WX    TMP DP  RH WIND       PRES   REMARKS
WASHINGTON NAT MOCLDY    79  65  62 S8        30.13R
DULLES         MOCLDY    78  64  61 SE8       30.12S
ANDREWS AFB    CLEAR     75  65  69 SE8       30.13R
FT BELVOIR     FAIR      74  66  75 CALM      30.12S
QUANTICO       FAIR      77  66  68 S6        30.13R
COLLEGE PARK*  FAIR      79  63  57 SE3       30.13R
LEESBURG*      FAIR      82  66  57 SE6       30.13R
MANASSAS*      CLEAR     73  66  78 S5        30.12R

$$

MDZ006>007-011-014-290200-
BALTIMORE METRO

CITY           SKY/WX    TMP DP  RH WIND       PRES   REMARKS
BWI AIRPORT    MOCLDY    76  56  49 S7        30.12R
MD SCIENCE CTR   N/A     79  57  46 MISG      30.14R
MARTIN STATE   PTCLDY    79  61  53 S8        30.15R
ANNAPOLIS      CLEAR     73  60  63 S12       30.14R
FORT MEADE*    CLEAR     70  59  68 SE5       30.15S

$$

MDZ012-015-019>023-290200-
MARYLAND EASTERN SHORE

CITY           SKY/WX    TMP DP  RH WIND       PRES   REMARKS
OCEAN CITY     CLEAR     68  63  84 S5        30.18R
SALISBURY      CLEAR     69  57  65 S6        30.17R
BAY BRIDGE AP* CLEAR     77  48  36 S10       30.14R
CAMBRIDGE*     CLEAR     70  63  78 CALM      30.16R
EASTON*        CLEAR     77  59  53 S6        30.19R

$$

MDZ017>025-290200-
SOUTHERN MARYLAND

CITY           SKY/WX    TMP DP  RH WIND       PRES   REMARKS
PATUXENT RIVER CLOUDY    72  62  71 S7        30.15R
ST INIGOES     CLEAR     73  63  70 SE9       30.15R
LEONARDTOWN*   CLEAR     72  61  68 SE5       30.17R

$$

MDZ003>005-290200-
NORTH CENTRAL MARYLAND

CITY           SKY/WX    TMP DP  RH WIND       PRES   REMARKS
FREDERICK*     CLOUDY    79  66  65 S5        30.14R
HAGERSTOWN APT CLOUDY    83  64  52 S8        30.12R
WESTMINSTER*   CLOUDY    81  75  83 S8        30.14S

$$

MDZ501>502-290200-
WESTERN MARYLAND

CITY           SKY/WX    TMP DP  RH WIND       PRES   REMARKS
OAKLAND*       NOT AVBL
CUMBERLAND*    CLEAR     79  66  65 CALM      30.13S

$$

VAZ025>031-290200-
SHENANDOAH VALLEY

CITY           SKY/WX    TMP DP  RH WIND       PRES   REMARKS
WINCHESTER*    FAIR      79  63  57 S5        30.12S
FRONT ROYAL*   FAIR      77  61  57 S5        30.12R
LURAY*         FAIR      73  61  64 CALM      30.14R
NEW MARKET*    FAIR      74  61  65 W5        30.12R
STAUNTON*      FAIR      72  62  71 CALM      30.18R
WAYNESBORO*    FAIR      74  60  61 S3        30.17S

$$

WVZ021-048>050-054>055-290200-
EASTERN WEST VIRGINIA PANHANDLE

CITY           SKY/WX    TMP DP  RH WIND       PRES   REMARKS
MARTINSBURG    FAIR      77  64  64 SE5       30.11R
PETERSBURG*    FAIR      76  65  70 CALM      30.13R

$$

VAZ036>039-050-290200-
CENTRAL FOOTHILLS

CITY           SKY/WX    TMP DP  RH WIND       PRES   REMARKS
CHARLOTTESVILL FAIR      76  62  62 S7        30.13S
CULPEPER*      FAIR      73  66  80 CALM      30.13R
ORANGE*        FAIR      77  63  61 CALM      30.15S
GORDONSVILLE*  FAIR      72  66  79 CALM      30.13S
WARRENTON*     FAIR      77  60  55 CALM      30.12S

$$

VAZ055>057-290200-
NORTH AND CENTRAL PIEDMONT

CITY           SKY/WX    TMP DP  RH WIND       PRES   REMARKS
FREDERICKSBRG* FAIR      76  65  68 S7        30.12S
STAFFORD*      FAIR      74  62  67 CALM      30.17R

$$

NCZ024-NYZ072-PAZ021-071-VAZ022-071-290200-
OTHER REGIONAL OBSERVATIONS

CITY           SKY/WX    TMP DP  RH WIND       PRES   REMARKS
NEW YORK CITY  CLOUDY    81  64  56 CALM      30.12R
PHILADELPHIA   PTCLDY    79  60  52 S13       30.13R
PITTSBURGH     CLOUDY    82  64  54 W6        30.10R
ROANOKE        FAIR      75  60  59 SE5       30.18R
RICHMOND       MOCLDY    74  62  66 SE6       30.14R
RALEIGH        CLOUDY    80  62  54 SE6       30.13R

$$

ANZ530>537-290200-
MARINE OBSERVATIONS

STATION/POSITION TIME  TEMP    WIND        PRES
                       AIR SEA DIR/SP/G
                 (UTC) (F)     (DEG/KT/KT) (MB)
THOMAS PT LIGHT  0100   72 68  170/ 16/ 17 1021.8R
BALT KEY BRIDGE  0000          160/ 14/ 17   N/A
COVE POINT       0000          190/ 15/ 16   N/A
LEWISETTA        0000          180/  8/ 10   N/A
SOLOMONS ISLAND  0000          160/  8/ 11   N/A
PINEY POINT      0000          160/ 11/ 13   N/A

$$




USA.gov is the U.S. government's official web portal to all federal, state and local government web resources and services.